Regional Weather Roundup
Issued by NWS Newport/Morehead, NC

Current Version | Previous Version | Text Only | Print | Product List | Glossary On
Versions: 1 2 3 4 5 6 7 8 9 10 11 12 13 14 15 16 17 18 19 20 21 22 23 24 25 26 27 28 29 30 31 32 33 34 35 36 37 38 39 40 41 42 43 44 45 46 47 48 49 50
000 ASUS42 KMHX 272327 RWRMHX WEATHER ROUNDUP FOR EASTERN NORTH CAROLINA NATIONAL WEATHER SERVICE NEWPORT/MOREHEAD CITY NC 700 PM EDT FRI MAR 27 2015 NOTE: "FAIR" INDICATES FEW OR NO CLOUDS BELOW 12,000 FEET WITH NO SIGNIFICANT WEATHER AND/OR OBSTRUCTIONS TO VISIBILITY NCZ015>017-031-032-045>047-102-103-280000- NORTH COAST CITY SKY/WX TMP DP RH WIND PRES REMARKS EDENTON DRIZZLE 42 40 92 N3 29.78R ELIZABETH CITY LGT RAIN 43 39 87 N15 29.76R KITTY HAWK LGT RAIN 40 39 97 N8G18 29.71F MANTEO CLOUDY 40 39 93 N12G24 29.75R $$ NCZ045>047-081-094-103-104-280000- CENTRAL COAST CITY SKY/WX TMP DP RH WIND PRES REMARKS FRISCO LGT RAIN 43 40 89 NE14G24 29.71R SWANQUARTER N/A 45 N/A N/A VRB3G12 29.71R $$ NCZ095-097-098-100-101-280000- SOUTHERN COAST CITY SKY/WX TMP DP RH WIND PRES REMARKS BEAUFORT RAIN 46 45 96 NE12G22 29.70F CEDAR ISLAND N/A 46 N/A N/A N14G26 29.74F JACKSONVILLE LGT RAIN 46 43 89 N15 29.73R PINEY ISLAND LGT RAIN N/A N/A N/A N16G23 29.71F WILMINGTON CLOUDY 47 44 90 N15 29.72R $$ NCZ011>013-027>030-043-044-078>080-089-090>093-098-280000- COASTAL PLAIN CITY SKY/WX TMP DP RH WIND PRES REMARKS AHOSKIE CLOUDY 40 38 92 CALM 29.80R CLINTON CLOUDY 45 44 97 N9 29.77R ELIZABETHTOWN CLOUDY 45 45 97 N9 29.75R GOLDSBORO CLOUDY 45 43 93 N12 29.77R GREENVILLE CLOUDY 43 41 93 N10 29.81S HAVELOCK LGT RAIN 46 43 89 N13 29.73S KENANSVILLE CLOUDY 44 42 95 N12G20 29.77S FOG KINSTON RAIN 45 43 93 N14 29.76 NEW BERN LGT RAIN 45 41 86 N14 29.76R RICHLANDS CLOUDY 45 39 81 N13 29.75R ROCKY MOUNT CLOUDY 43 39 86 N9 29.80R WASHINGTON DRIZZLE 42 40 92 N7 29.78R WHITEVILLE CLOUDY 47 45 91 N6 29.73R FOG $$ AMZ130-135-150-152-154-156-158-170-250-252-270-ANZ085-086-088-633-658-670-280000- MARINE OBSERVATIONS STATION/POSITION TIME TEMP WIND PRES WAVE SWELL AIR SEA DIR/SP/G HT/PER HT/PER (UTC) (F) (DEG/KT/KT) (MB) (FT/S) (FT/S) CHESAPEAKE LIGHT 2300 40 10/ 16/ 18 1008.1 64 E VA BEACH 2250 44 52 350/ 21/ 25 1005.7 9/ 8 5/10 DUCK 2300 41 41 10/ 17/ 19 1006.0 2 E DUCK 2311 42 N/A 6/ 8 2/11 10 NE DUCK NOT AVBL OREGON INLET 2200 41 55 350/ 14/ 19 1006.8 HATTERAS CG 2300 50/ 13/ 22 N/A CAPE LOOKOUT 2300 48 30/ 19/ 23 1005.6 BEAUFORT LAB 2300 47 58 20/ 8/ 13 1004.9 27 SE WRIGHTSVLE 2300 50 64 30/ 21/ 27 1006.1 5 SE WRIGHTSVLE 2300 50 57 20/ 19/ 23 1005.1 225 S CAPE HAT 2250 71 69 220/ 14/ 16 1006.3 10/ 8 8/ 8 41 SE CHARLESTON 2250 66 69 280/ 21/ 33 1003.1 6/ 8 3/ 8 $$

USA.gov is the U.S. government's official web portal to all federal, state and local government web resources and services.